SCP
1 1 1 1 1 1 1 1 1 1 1 1 1 1 1 1 1 1 1 2 2 2 2 3 3 3 2 2 2 2 2 2 2 2 2 1 1 1 1 1 0 0 0
1 1 1 1 1 1 1 1 1 1 1 1 1 1 1 1 1 1 1 1 1 2 2 2 2 2 2 2 1 2 2 2 2 2 2 2 1 1 1 1 1 1 1
1 1 1 1 1 1 1 1 1 1 1 1 1 1 1 1 1 1 1 1 1 1 1 2 2 2 1 1 1 1 2 2 2 2 2 2 2 2 2 1 1 1 1
1 1 1 1 1 1 1 1 1 1 1 1 1 1 1 1 1 1 1 1 1 1 1 1 1 1 2 2 2 2 2 2 2 2 2 2 2 2 2 2 2 1 1
1 1 1 1 1 1 1 1 1 1 1 1 1 1 1 1 1 2 1 1 1 1 1 1 1 2 2 2 2 2 2 2 2 1 1 2 2 2 2 2 2 2 2
1 1 1 1 1 1 1 1 1 1 1 1 1 1 1 1 1 1 1 1 1 1 1 1 1 1 2 2 2 2 2 2 2 1 1 1 1 2 2 2 2 2 2
1 1 1 1 1 1 1 1 1 1 1 1 1 1 1 1 1 1 1 1 1 1 1 1 1 1 1 2 2 2 2 2 2 2 1 1 1 2 2 2 2 2 2
1 1 1 1 1 1 1 1 1 2 1 2 2 2 1 1 1 1 2 2 1 1 1 1 1 1 1 1 2 2 2 2 2 2 2 1 1 2 2 2 2 2 2
1 1 1 1 1 1 1 1 1 2 1 2 2 2 2 2 2 2 2 2 2 2 2 1 2 2 2 1 1 2 2 2 1 1 2 2 2 2 2 1 1 1 1
1 1 1 1 1 1 1 1 1 1 1 2 2 2 2 2 2 2 2 2 2 3 2 2 2 2 2 2 2 2 2 1 1 1 1 2 2 2 1 1 1 1 1
2 1 1 1 1 1 2 1 1 1 2 2 2 3 3 3 3 2 2 2 2 3 3 3 2 2 2 2 2 2 2 1 1 1 1 2 2 2 2 1 1 1 1
2 2 1 1 2 2 2 2 2 2 2 3 3 4 4 4 4 3 2 2 2 3 4 4 4 3 2 2 2 2 2 1 1 1 1 1 2 2 2 1 1 1 1
2 2 2 2 2 2 2 2 3 3 3 4 4 5 5 5 5 5 4 4 3 3 4 5 5 4 3 3 3 2 1 1 1 1 1 1 1 1 1 1 1 1 1
1 1 1 1 2 2 3 3 4 4 4 5 6 6 6 6 6 6 6 6 5 5 5 5 5 5 4 4 3 2 1 1 0 0 0 0 1 1 1 1 1 1 1
2 1 1 2 2 3 3 3 3 4 4 5 6 7 7 7 7 8 8 8 8 6 6 6 6 6 5 4 3 2 1 1 0 0 0 0 0 0 1 1 1 1 1
3 2 2 2 3 3 3 3 3 3 4 5 6 7 8 9 9 10 10 10 10 8 7 7 7 7 6 5 3 2 1 1 0 0 0 0 0 0 0 0 0 0 0
4 4 3 3 3 3 3 3 3 3 4 5 6 7 8 8 9 10 11 10 10 8 6 6 7 7 6 5 3 2 1 1 1 0 0 0 0 0 0 0 0 0 0
5 4 4 4 3 3 3 3 3 3 4 4 5 5 6 7 8 8 9 9 8 7 5 5 5 6 6 5 4 2 2 1 1 0 0 0 0 0 0 0 0 0 0
5 5 5 5 5 5 5 5 5 5 5 4 4 5 5 6 6 6 6 6 6 6 5 4 4 4 5 4 4 3 2 2 1 1 0 0 0 0 0 0 0 0 0
6 6 6 7 7 7 6 6 6 6 6 6 6 6 6 6 5 4 4 4 4 5 4 4 3 3 4 4 4 3 2 2 2 1 1 1 1 0 0 0 0 0 0
6 7 7 7 8 8 7 6 6 7 7 7 7 7 6 5 4 3 2 2 3 3 4 3 3 3 3 4 4 3 3 2 2 2 2 1 1 1 1 1 0 0 0
6 7 7 6 7 7 6 5 6 7 8 9 9 8 5 3 3 2 2 1 2 2 3 3 3 3 3 4 4 4 4 3 2 2 2 2 2 2 2 1 1 0 0
6 6 6 6 5 5 4 3 4 7 10 10 8 6 3 2 2 2 2 1 1 1 2 2 3 3 4 4 5 5 4 4 3 3 4 3 2 2 2 1 1 1 0
5 6 6 6 5 5 3 2 3 6 9 8 5 3 2 2 2 3 2 2 2 2 2 2 2 3 3 3 4 4 4 4 4 4 4 4 3 2 2 2 1 1 0
6 6 6 6 6 5 3 1 2 4 5 4 3 2 2 2 2 2 2 2 2 2 2 1 2 2 2 2 2 3 3 4 4 4 5 5 4 3 3 2 1 1 0
7 6 6 7 7 6 3 1 2 3 3 3 2 3 2 2 2 2 2 3 3 3 2 1 1 1 1 1 1 2 2 3 3 4 5 6 5 4 3 3 2 1 0
Wind_Speed
3 3 3 2 2 3 4 3 2 2 2 3 2 2 2 1 2 2 4 8 7 7 8 8 8 9 9 9 9 9 8 8 7 7 7 8 8 7 8 8 7 7 7
3 3 3 3 2 2 2 2 2 2 1 1 1 1 2 2 2 2 2 6 9 7 7 8 8 8 9 9 10 10 9 9 8 8 8 8 8 8 8 8 8 8 8
3 3 3 3 2 2 2 2 2 2 2 2 1 1 2 2 1 2 2 2 4 9 9 8 8 8 9 10 10 11 10 10 10 9 9 8 8 9 9 8 8 8 8
3 3 2 2 2 2 2 2 2 1 1 1 1 1 1 1 2 3 3 3 3 3 8 10 8 8 9 10 10 11 11 11 11 10 10 10 10 10 9 9 9 8 9
4 3 2 1 2 2 1 2 1 1 1 1 1 1 1 2 2 3 3 4 3 3 3 7 9 8 9 10 10 11 11 11 11 11 11 11 11 10 10 10 10 9 9
4 3 3 2 2 2 1 1 1 1 1 1 2 1 1 2 2 2 3 3 3 4 4 3 5 7 9 8 8 9 9 9 10 11 11 12 11 11 11 10 10 10 10
3 3 2 3 3 2 2 3 2 3 3 2 2 2 2 3 2 2 3 3 3 3 3 3 4 3 4 10 9 8 8 8 8 9 10 10 11 11 11 11 10 10 10
3 4 3 3 3 2 3 3 3 3 3 2 3 3 2 3 3 2 3 3 3 3 4 4 4 3 4 3 5 9 8 8 9 9 9 9 10 11 11 11 11 10 10
4 3 3 3 2 4 3 4 4 4 3 3 3 3 3 1 1 3 3 2 2 3 3 3 4 4 4 3 3 7 8 7 8 9 9 9 8 9 10 11 11 11 11
4 4 4 3 3 4 3 5 4 4 4 4 3 3 4 3 3 2 3 2 2 3 3 3 3 4 4 4 3 2 5 7 7 8 8 8 8 8 9 10 11 11 11
5 5 4 4 4 3 3 4 3 4 4 4 3 3 3 3 5 4 3 2 2 2 2 3 3 3 3 4 3 3 5 6 6 7 7 8 8 9 9 10 11 11 12
4 5 5 4 4 3 3 4 4 5 4 4 4 3 3 3 4 4 4 4 3 2 3 2 3 3 3 3 3 3 4 5 5 6 7 7 8 8 9 10 11 11 12
4 5 4 4 3 3 3 3 4 4 4 4 4 4 3 3 4 4 4 4 4 3 3 4 3 2 3 2 2 4 5 5 5 5 6 6 7 8 8 9 10 10 10
4 4 4 4 4 4 4 3 4 3 3 4 4 4 3 3 4 4 4 4 5 4 4 3 2 3 2 3 1 5 4 5 5 5 5 5 5 6 7 7 8 8 7
4 5 5 5 4 4 4 4 3 3 3 4 4 4 4 3 3 3 4 4 5 5 4 3 3 2 2 2 2 4 4 4 5 5 5 5 5 5 6 6 6 6 6
4 5 5 5 4 4 4 4 4 3 4 4 3 3 4 3 3 3 4 4 4 5 4 2 2 1 1 3 3 4 4 5 6 6 6 6 5 5 5 5 5 6 6
6 6 5 5 5 4 4 4 4 4 4 4 4 4 4 4 4 3 4 4 4 4 5 4 3 1 2 4 2 4 4 4 4 7 7 6 5 5 5 5 5 5 6
7 6 6 6 5 5 4 4 5 4 5 5 4 4 5 4 4 5 4 4 4 4 5 5 4 3 3 4 4 5 4 4 4 6 8 7 6 6 6 6 6 6 6
7 6 6 6 5 5 5 5 5 5 5 5 5 5 5 5 5 4 5 5 4 4 4 5 5 3 3 3 4 4 4 4 5 4 8 8 6 6 5 5 6 6 6
7 7 6 6 6 6 6 5 5 5 5 5 5 5 5 6 6 5 5 5 5 5 5 5 5 4 3 3 3 4 4 3 4 3 2 4 5 7 6 5 5 4 5
8 7 7 7 7 6 6 5 6 6 5 6 5 5 5 4 4 5 5 4 5 5 5 5 5 5 4 3 3 4 4 3 3 3 3 3 4 4 5 5 5 4 4
8 7 8 7 8 6 3 4 6 6 6 6 5 5 4 5 3 4 4 4 5 6 6 5 5 5 5 4 3 4 4 4 3 2 3 3 3 3 3 2 2 4 4
7 8 8 8 7 5 4 4 6 7 6 6 5 5 5 2 4 3 4 5 5 5 6 7 6 6 5 4 5 6 4 5 4 3 3 4 3 3 3 1 4 4 4
6 6 7 7 7 6 5 6 6 7 6 5 5 5 4 4 3 3 4 4 4 4 5 6 5 6 5 4 5 6 5 5 5 4 3 4 3 3 3 2 6 5 5
5 6 6 6 6 5 5 6 6 6 5 5 5 4 4 4 1 2 3 4 4 4 3 2 3 3 3 3 4 5 5 5 4 3 3 4 3 3 3 3 4 8 7
5 5 4 5 5 4 4 5 6 5 4 4 3 3 1 1 0 1 3 4 4 4 3 3 4 5 5 5 6 6 5 5 5 4 2 3 3 3 3 3 2 3 4
Wind_Direction
147 143 137 142 155 144 158 155 152 146 176 184 191 169 186 209 232 228 144 164 188 203 208 206 205 202 199 201 204 207 209 209 207 207 209 211 211 211 211 213 213 213 213
142 150 152 156 156 162 134 152 150 173 202 181 199 179 211 212 202 234 219 169 186 200 209 213 214 210 208 209 211 214 215 213 212 213 214 215 217 217 218 218 218 217 216
147 168 157 171 154 152 154 179 159 175 195 200 182 179 211 231 220 228 245 240 194 191 201 212 219 220 218 218 219 219 218 217 218 217 217 219 220 220 221 223 223 221 218
167 188 173 167 157 180 173 171 199 187 176 221 196 223 214 209 225 229 237 237 250 221 192 198 214 222 224 226 226 224 221 219 219 219 218 220 223 222 222 223 224 224 220
179 198 188 140 191 200 207 226 158 238 197 203 224 206 235 229 226 230 241 244 239 246 237 177 197 215 225 231 233 230 227 222 219 220 221 222 225 227 226 224 225 225 224
178 208 192 181 223 215 212 215 209 233 247 238 258 252 247 241 230 235 241 232 228 232 235 231 209 201 210 224 230 230 231 230 223 223 223 223 224 226 225 223 225 227 227
183 204 224 185 226 218 225 224 224 214 230 222 235 234 219 217 218 231 234 242 230 231 233 228 244 240 201 204 215 222 227 232 227 224 223 224 224 226 224 223 226 230 227
207 200 217 226 215 214 222 228 225 244 239 220 244 251 228 198 205 206 215 215 234 234 227 220 227 226 250 222 178 202 221 229 231 227 224 225 226 223 221 221 224 228 227
206 226 213 231 232 234 217 228 228 232 242 235 243 266 274 253 236 191 210 212 226 242 239 232 228 229 235 238 219 191 208 225 232 233 228 225 225 224 222 222 223 226 226
206 203 213 220 235 245 230 234 221 234 243 249 233 240 269 303 276 234 211 200 214 238 252 255 241 223 232 236 215 186 196 218 229 237 235 230 225 225 227 229 228 227 226
204 209 213 221 225 236 238 251 245 243 241 249 253 241 239 239 250 263 261 253 237 235 237 245 251 244 235 236 233 188 188 212 226 235 235 236 233 230 231 234 235 234 232
196 200 208 220 230 235 230 235 235 229 244 254 261 254 250 247 245 249 251 245 245 243 248 258 258 249 242 238 220 146 186 203 222 234 235 237 239 237 235 235 238 238 238
197 199 211 216 231 236 242 246 237 244 233 237 244 249 252 251 260 264 263 261 259 247 234 238 241 257 254 239 186 171 187 197 215 226 231 234 237 238 238 239 241 242 243
209 193 207 217 225 231 235 233 241 230 229 237 242 255 259 254 254 257 263 265 258 248 232 236 227 232 250 243 167 202 196 182 204 218 229 234 234 235 240 241 245 244 241
210 201 210 216 221 225 231 236 240 241 232 237 232 224 242 248 255 259 259 262 269 268 258 224 233 218 240 239 183 223 233 179 194 208 221 226 228 229 235 237 238 237 236
211 213 216 217 218 219 220 230 231 229 238 242 256 261 255 256 254 249 248 251 258 266 271 265 246 249 274 265 197 235 236 182 189 204 215 221 220 222 229 234 234 233 234
202 211 216 219 220 219 219 222 237 232 238 242 246 247 253 263 262 253 247 248 250 258 260 264 262 242 246 270 251 244 242 232 200 188 202 211 217 223 226 228 231 232 231
209 208 211 215 218 216 220 224 235 236 238 243 250 257 259 255 255 261 258 257 256 252 254 262 263 250 239 251 254 254 252 241 241 174 189 203 214 222 227 229 231 231 230
211 212 211 214 220 222 223 228 232 237 239 243 247 251 255 258 260 259 257 257 255 247 242 252 255 259 250 248 250 249 254 263 260 191 187 197 208 216 217 220 225 229 230
211 214 215 217 222 226 226 230 234 236 240 246 252 257 260 258 258 258 252 254 257 255 246 249 250 248 246 246 252 253 249 238 260 255 213 204 193 199 199 202 213 224 228
210 210 215 219 225 226 227 228 236 235 237 243 247 253 259 272 295 280 272 263 258 255 250 249 250 249 246 247 251 256 258 253 242 253 247 229 210 215 204 201 212 226 227
210 209 214 220 228 233 200 224 246 245 243 245 251 253 248 232 232 241 257 277 282 267 269 266 260 261 258 251 263 265 265 258 249 232 254 249 237 235 234 223 177 191 206
209 211 215 220 225 221 200 214 240 248 246 250 250 252 258 254 247 245 223 222 241 253 255 266 267 269 266 262 263 260 261 263 265 267 250 252 243 241 242 177 143 167 190
209 214 218 220 223 215 193 204 227 239 248 250 247 245 249 252 260 265 255 247 245 242 243 246 256 266 274 278 266 265 262 252 250 247 244 255 242 247 250 216 153 168 185
210 217 221 224 227 217 192 201 223 237 240 244 244 241 243 247 344 298 255 252 253 247 227 228 265 271 295 286 279 263 254 253 255 244 223 252 252 253 251 235 173 176 188
212 220 221 228 228 225 195 198 221 237 239 243 234 223 189 221 91 273 244 249 255 263 262 237 225 227 233 227 229 249 264 264 265 255 201 243 253 254 252 233 224 199 194